User: anonymous   Login
Location: Caltech
(34.1382°N, 118.1253°W)
Time: 04:43:29
(UTC-08:00)
Language:

JAS-1B - Orbit

View from above orbital plane
View from above orbital plane
View from above satellite
View from above satellite

Ground track
Ground track

The orbit data is extracted from the following two-line orbital elements,

1 20480U 90013C   15060.76276654 -.00000034  00000-0 -10347-4 0  9990
2 20480 099.0747 340.8348 0540876 130.5886 260.0748 12.83402140174175
Epoch (UTC): 01 March 2015 18:18:23
Eccentricity: 0.0540876
inclination: 99.0747°
perigee height: 911 km
apogee height: 1744 km
right ascension of ascending node: 340.8348°
argument of perigee: 130.5886°
revolutions per day: 12.83402140
mean anomaly at epoch: 260.0748°
orbit number at epoch: 17417

The dashed part of the orbit path shows where the satellite is in the earth's shadow,  

DLR